CZ-6A DEB

基本信息
目录编号:
60712
目录名称:
CZ-6A DEB
国际标识:
2024-140DR
轨道中心:
EARTH
物体状态:
在轨
发射日期:
2024-08-06 UTC
轨道信息
数据来源: 国际轨道数据
星历时间: 2026-09-12T01:35:15+0800
半长轴: 7043.235km
偏心率: 0.0146983
轨道倾角: 88.879°
近地点辐角: 262.627°
升交点赤经: 246.493°
平近点角: 95.823°
近地点: 561.574km
远地点: 768.622km
周期: 98.043分钟
每日圈数: 14.687388
详细信息
发射场:
TSC
轨道高度:
LEO
数据来源:
AOE Integration Group
参考系:
TEME
时间系统:
UTC
历元类型:
SGP4
2D轨道图
3D轨道图
轨道高度分析图
轨道倾角分析图
轨道综合分析图
查看轨道综合分析图